Time,TemperatureF,DewpointF,PressureIn,WindDirection,WindDirectionDegrees,WindSpeedMPH,WindSpeedGustMPH,Humidity,HourlyPrecipIn,Conditions,Clouds,dailyrainin,SoftwareType,DateUTC
2013-11-14 00:22:00,37.0,23.0,29.86,SW,218,4.0,14.0,57,0.00,,,0.00,,2013-11-14 06:22:00,
2013-11-14 00:42:00,37.0,24.0,29.86,South,180,4.0,13.0,58,0.00,,,0.00,,2013-11-14 06:42:00,
2013-11-14 00:52:00,37.0,24.0,29.86,SSW,205,4.0,12.0,58,0.00,,,0.00,,2013-11-14 06:52:00,
2013-11-14 01:11:00,37.0,24.0,29.85,SSE,149,3.0,12.0,58,0.00,,,0.00,,2013-11-14 07:11:00,
2013-11-14 01:22:00,37.0,24.0,29.85,SW,225,3.0,8.0,59,0.00,,,0.00,,2013-11-14 07:22:00,
2013-11-14 01:42:00,36.0,23.0,29.85,SSW,202,4.0,8.0,59,0.00,,,0.00,,2013-11-14 07:42:00,
2013-11-14 01:53:00,36.0,23.0,29.84,WSW,246,3.0,10.0,60,0.00,,,0.00,,2013-11-14 07:53:00,
2013-11-14 02:12:00,36.0,23.0,29.84,SSW,207,4.0,10.0,59,0.00,,,0.00,,2013-11-14 08:12:00,
2013-11-14 02:21:00,36.0,23.0,29.84,SW,230,3.0,9.0,60,0.00,,,0.00,,2013-11-14 08:21:00,
2013-11-14 02:53:00,36.0,23.0,29.83,SSW,192,4.0,9.0,60,0.00,,,0.00,,2013-11-14 08:53:00,
2013-11-14 03:11:00,35.0,23.0,29.83,SW,228,3.0,7.0,60,0.00,,,0.00,,2013-11-14 09:11:00,
2013-11-14 03:22:00,35.0,23.0,29.83,SSW,210,3.0,9.0,61,0.00,,,0.00,,2013-11-14 09:22:00,
2013-11-14 03:43:00,35.0,23.0,29.83,South,180,3.0,8.0,61,0.00,,,0.00,,2013-11-14 09:43:00,
2013-11-14 03:53:00,35.0,23.0,29.83,South,189,2.0,7.0,62,0.00,,,0.00,,2013-11-14 09:53:00,
2013-11-14 04:23:00,34.0,23.0,29.82,SSW,201,4.0,8.0,63,0.00,,,0.00,,2013-11-14 10:23:00,
2013-11-14 04:42:00,34.0,23.0,29.82,South,172,3.0,11.0,63,0.00,,,0.00,,2013-11-14 10:42:00,
2013-11-14 04:52:00,34.0,23.0,29.83,SW,231,4.0,11.0,63,0.00,,,0.00,,2013-11-14 10:52:00,
2013-11-14 05:11:00,34.0,23.0,29.82,West,273,4.0,7.0,63,0.00,,,0.00,,2013-11-14 11:11:00,
2013-11-14 05:22:00,34.0,23.0,29.82,WSW,243,2.0,7.0,64,0.00,,,0.00,,2013-11-14 11:22:00,
2013-11-14 05:42:00,34.0,23.0,29.83,SSW,200,2.0,7.0,64,0.00,,,0.00,,2013-11-14 11:42:00,
2013-11-14 05:52:00,34.0,23.0,29.82,SW,218,2.0,5.0,65,0.00,,,0.00,,2013-11-14 11:52:00,
2013-11-14 06:12:00,34.0,23.0,29.82,SW,234,3.0,6.0,65,0.00,,,0.00,,2013-11-14 12:12:00,
2013-11-14 06:21:00,33.0,23.0,29.81,SSW,208,3.0,8.0,65,0.00,,,0.00,,2013-11-14 12:21:00,
2013-11-14 06:42:00,33.0,23.0,29.80,SSW,203,2.0,6.0,66,0.00,,,0.00,,2013-11-14 12:42:00,
2013-11-14 06:52:00,33.0,23.0,29.80,SW,218,2.0,7.0,67,0.00,,,0.00,,2013-11-14 12:52:00,
2013-11-14 07:22:00,33.0,23.0,29.82,SSW,202,2.0,7.0,67,0.00,,,0.00,,2013-11-14 13:22:00,
2013-11-14 07:42:00,32.0,23.0,29.82,SW,223,2.0,6.0,68,0.00,,,0.00,,2013-11-14 13:42:00,
2013-11-14 07:52:00,33.0,24.0,29.82,SSW,195,2.0,5.0,68,0.00,,,0.00,,2013-11-14 13:52:00,
2013-11-14 08:11:00,33.0,24.0,29.81,SSW,209,3.0,8.0,68,0.00,,,0.00,,2013-11-14 14:11:00,
2013-11-14 08:22:00,33.0,23.0,29.82,South,190,3.0,6.0,67,0.00,,,0.00,,2013-11-14 14:22:00,
2013-11-14 08:52:00,34.0,24.0,29.81,West,269,2.0,5.0,66,0.00,,,0.00,,2013-11-14 14:52:00,
2013-11-14 09:22:00,36.0,25.0,29.81,SSW,200,3.0,9.0,64,0.00,,,0.00,,2013-11-14 15:22:00,
2013-11-14 09:43:00,37.0,26.0,29.80,SSW,211,4.0,9.0,63,0.00,,,0.00,,2013-11-14 15:43:00,
2013-11-14 09:53:00,37.0,26.0,29.81,West,279,2.0,10.0,63,0.00,,,0.00,,2013-11-14 15:53:00,
2013-11-14 10:13:00,37.0,26.0,29.82,WSW,247,4.0,7.0,63,0.00,,,0.00,,2013-11-14 16:13:00,
2013-11-14 10:23:00,37.0,26.0,29.81,SSW,211,5.0,11.0,63,0.00,,,0.00,,2013-11-14 16:23:00,
2013-11-14 10:42:00,38.0,27.0,29.81,South,184,2.0,11.0,63,0.00,,,0.00,,2013-11-14 16:42:00,
2013-11-14 10:52:00,39.0,27.0,29.81,SW,216,3.0,8.0,62,0.00,,,0.00,,2013-11-14 16:52:00,
2013-11-14 11:13:00,40.0,28.0,29.81,SSE,167,2.0,8.0,62,0.00,,,0.00,,2013-11-14 17:13:00,
2013-11-14 11:22:00,41.0,29.0,29.81,WSW,250,4.0,9.0,61,0.00,,,0.00,,2013-11-14 17:22:00,
2013-11-14 11:42:00,40.0,28.0,29.80,SW,215,3.0,9.0,61,0.00,,,0.00,,2013-11-14 17:42:00,
2013-11-14 11:52:00,40.0,28.0,29.79,West,275,4.0,10.0,62,0.00,,,0.00,,2013-11-14 17:52:00,
2013-11-14 12:12:00,41.0,29.0,29.79,West,266,2.0,6.0,62,0.00,,,0.00,,2013-11-14 18:12:00,
2013-11-14 12:21:00,41.0,29.0,29.79,WNW,296,2.0,8.0,62,0.00,,,0.00,,2013-11-14 18:21:00,
2013-11-14 12:42:00,41.0,29.0,29.78,WSW,254,4.0,8.0,62,0.00,,,0.00,,2013-11-14 18:42:00,
2013-11-14 12:52:00,42.0,30.0,29.78,West,266,3.0,6.0,63,0.00,,,0.00,,2013-11-14 18:52:00,
2013-11-14 13:11:00,42.0,30.0,29.78,West,280,2.0,5.0,63,0.00,,,0.00,,2013-11-14 19:11:00,
2013-11-14 13:21:00,42.0,30.0,29.78,West,281,3.0,7.0,63,0.00,,,0.00,,2013-11-14 19:21:00,
2013-11-14 13:42:00,42.0,31.0,29.78,West,281,2.0,6.0,64,0.00,,,0.00,,2013-11-14 19:42:00,
2013-11-14 13:52:00,41.0,31.0,29.77,South,190,1.0,5.0,68,0.00,,,0.00,,2013-11-14 19:52:00,
2013-11-14 14:12:00,41.0,32.0,29.77,West,262,1.0,4.0,71,0.00,,,0.00,,2013-11-14 20:12:00,
2013-11-14 14:22:00,41.0,34.0,29.77,WSW,249,0.0,4.0,77,0.00,,,0.00,,2013-11-14 20:22:00,
2013-11-14 14:42:00,40.0,34.0,29.77,SW,225,0.0,3.0,79,0.01,,,0.01,,2013-11-14 20:42:00,
2013-11-14 14:52:00,40.0,34.0,29.77,SSW,193,2.0,4.0,80,0.01,,,0.01,,2013-11-14 20:52:00,
2013-11-14 15:11:00,40.0,34.0,29.77,SSW,204,3.0,5.0,80,0.01,,,0.01,,2013-11-14 21:11:00,
2013-11-14 15:22:00,40.0,35.0,29.76,South,174,2.0,4.0,81,0.01,,,0.01,,2013-11-14 21:22:00,
2013-11-14 15:43:00,41.0,36.0,29.78,WNW,289,0.0,5.0,81,0.00,,,0.01,,2013-11-14 21:43:00,
2013-11-14 15:53:00,41.0,35.0,29.77,WNW,289,2.0,4.0,80,0.00,,,0.01,,2013-11-14 21:53:00,
2013-11-14 16:13:00,41.0,35.0,29.76,SSW,208,2.0,4.0,79,0.00,,,0.01,,2013-11-14 22:13:00,
2013-11-14 16:23:00,41.0,35.0,29.76,WSW,251,1.0,5.0,79,0.00,,,0.01,,2013-11-14 22:23:00,
2013-11-14 16:43:00,40.0,34.0,29.76,SSW,197,1.0,4.0,79,0.00,,,0.01,,2013-11-14 22:43:00,
2013-11-14 16:53:00,40.0,34.0,29.76,South,184,2.0,3.0,79,0.00,,,0.01,,2013-11-14 22:53:00,
2013-11-14 17:12:00,40.0,34.0,29.75,SSW,195,1.0,4.0,80,0.00,,,0.01,,2013-11-14 23:12:00,
2013-11-14 17:22:00,40.0,34.0,29.76,South,182,2.0,4.0,80,0.00,,,0.01,,2013-11-14 23:22:00,
2013-11-14 17:43:00,40.0,34.0,29.76,SSW,196,0.0,4.0,80,0.00,,,0.01,,2013-11-14 23:43:00,
2013-11-14 17:52:00,40.0,34.0,29.76,South,178,1.0,4.0,79,0.00,,,0.01,,2013-11-14 23:52:00,
2013-11-14 18:11:00,40.0,33.0,29.76,SSW,200,3.0,5.0,77,0.00,,,0.01,,2013-11-15 00:11:00,
2013-11-14 18:21:00,40.0,33.0,29.76,South,188,3.0,6.0,77,0.00,,,0.01,,2013-11-15 00:21:00,
2013-11-14 18:42:00,40.0,33.0,29.76,South,191,3.0,6.0,77,0.00,,,0.01,,2013-11-15 00:42:00,
2013-11-14 18:52:00,39.0,33.0,29.76,SSE,153,3.0,6.0,78,0.00,,,0.01,,2013-11-15 00:52:00,
2013-11-14 19:22:00,39.0,33.0,29.76,SSE,162,3.0,7.0,79,0.00,,,0.01,,2013-11-15 01:22:00,
2013-11-14 19:42:00,39.0,33.0,29.77,SSW,206,3.0,7.0,79,0.00,,,0.01,,2013-11-15 01:42:00,
2013-11-14 19:52:00,39.0,33.0,29.77,South,184,5.0,10.0,79,0.00,,,0.01,,2013-11-15 01:52:00,
2013-11-14 20:12:00,39.0,33.0,29.78,SW,226,2.0,7.0,78,0.00,,,0.01,,2013-11-15 02:12:00,
2013-11-14 20:22:00,39.0,33.0,29.78,SSW,197,2.0,7.0,78,0.00,,,0.01,,2013-11-15 02:22:00,
2013-11-14 20:42:00,38.0,32.0,29.78,South,178,4.0,7.0,79,0.00,,,0.01,,2013-11-15 02:42:00,
2013-11-14 20:52:00,38.0,32.0,29.78,South,184,3.0,8.0,78,0.00,,,0.01,,2013-11-15 02:52:00,
2013-11-14 21:22:00,38.0,32.0,29.78,South,173,2.0,5.0,78,0.00,,,0.01,,2013-11-15 03:22:00,
2013-11-14 21:44:00,38.0,32.0,29.78,South,187,1.0,4.0,78,0.00,,,0.01,,2013-11-15 03:44:00,
2013-11-14 21:54:00,38.0,32.0,29.78,SSW,202,2.0,6.0,78,0.00,,,0.01,,2013-11-15 03:54:00,
2013-11-14 22:14:00,37.0,31.0,29.78,SSW,200,2.0,5.0,78,0.00,,,0.01,,2013-11-15 04:14:00,
2013-11-14 22:24:00,37.0,31.0,29.78,SSW,201,1.0,3.0,79,0.00,,,0.01,,2013-11-15 04:24:00,
2013-11-14 22:42:00,37.0,31.0,29.78,SSW,203,1.0,3.0,79,0.00,,,0.01,,2013-11-15 04:42:00,
2013-11-14 22:53:00,37.0,31.0,29.78,South,190,1.0,2.0,80,0.00,,,0.01,,2013-11-15 04:53:00,
2013-11-14 23:13:00,37.0,31.0,29.77,SSW,204,1.0,4.0,80,0.00,,,0.01,,2013-11-15 05:13:00,
2013-11-14 23:22:00,37.0,31.0,29.77,South,190,0.0,2.0,79,0.00,,,0.01,,2013-11-15 05:22:00,
2013-11-14 23:43:00,36.0,30.0,29.77,South,190,1.0,2.0,80,0.00,,,0.01,,2013-11-15 05:43:00,
2013-11-14 23:53:00,36.0,31.0,29.77,South,190,0.0,1.0,81,0.00,,,0.01,,2013-11-15 05:53:00,